Home   Weather   Fürstenfeldbruck   Past weeks

Flag for Germany Past Weather in Fürstenfeldbruck, Bavaria, Germany — Yesterday and Last 2 Weeks

Now
39 °F

Partly sunny.


Feels Like: 31 °F
Forecast: 29 / 39 °F
Wind: 14 mph from Southwest

Location: Lechfeld

Current Time: Dec 11, 2016 at 1:07:39 pm

Latest Report: Dec 11, 2016 at 12:20 pm


Visibility: N/A

Pressure: 30.18 "Hg (28.31 "Hg at 520m altitude)

Humidity: 87%

Dew Point: 36 °F

Location of FürstenfeldbruckLocation

Past Weather in Fürstenfeldbruck — Graph

°F

Fürstenfeldbruck Temperature Yesterday

Maximum temperature yesterday: 50 °F (at 1:20 pm)
Minimum temperature yesterday: 27 °F (at 8:20 pm)
Average temperature yesterday: 36 °F

High & Low Weather Summary for the Past Weeks

 TemperatureHumidityPressure
High50 °F (Dec 9, 1:20 pm)100% (Nov 26, 11:20 am)30.57 "Hg (Nov 26, 11:20 am)
Low16 °F (Nov 30, 2:20 am)37% (Dec 9, 1:20 pm)30.01 "Hg (Nov 26, 12:20 pm)
Average31 °F82%30.31 "Hg
* Reported Nov 26 11:20 am — Dec 11 11:20 am, Fürstenfeldbruck, Weather by CustomWeather, © 2016

Note: Actual official high and low records may vary slightly from our data, if they occured in-between our weather recording intervals... More about our weather records

Advertising

Fürstenfeldbruck Weather History for the Previous 24 Hours

Scroll right to see more
 ConditionsComfort  
Time TempWeatherWind HumidityBarometerVisibility
11:20 am
Sun, Dec 11
41 °FQuite cool.17 mph76%30.21 "Hg4 mi
10:20 am41 °FQuite cool.17 mph70%30.18 "Hg4 mi
9:20 am41 °FQuite cool.13 mph61%30.15 "HgN/A
8:20 am37 °FChilly.14 mph65%30.15 "HgN/A
7:20 am36 °FChilly.8 mph65%30.15 "HgN/A
6:20 am36 °FChilly.9 mph65%30.15 "HgN/A
5:20 am34 °FChilly.8 mph65%30.15 "HgN/A
4:20 am36 °FChilly.7 mph60%30.15 "HgN/A
3:20 am36 °FChilly.10 mph60%30.15 "HgN/A
2:20 am27 °FChilly.6 mph74%30.15 "HgN/A
1:20 am30 °FChilly.6 mph69%30.18 "HgN/A
12:20 am30 °FChilly.9 mph69%30.18 "HgN/A
11:20 pm
Sat, Dec 10
27 °FChilly.2 mph80%30.21 "HgN/A
10:20 pm30 °FChilly.5 mph69%30.21 "HgN/A
9:20 pm36 °FChilly.7 mph56%30.24 "HgN/A
8:20 pm27 °FChilly.6 mph86%30.24 "HgN/A
7:20 pm36 °FChilly.5 mph65%30.27 "Hg5 mi
6:20 pm37 °FChilly.3 mph60%30.27 "HgN/A
5:20 pm45 °FQuite cool.6 mph42%30.27 "HgN/A
4:20 pm46 °FCool.6 mph43%30.27 "HgN/A
3:20 pm50 °FCool.5 mph37%30.27 "HgN/A
2:20 pm50 °FCool.5 mph37%30.27 "HgN/A
1:20 pm50 °FCool.6 mph37%30.30 "HgN/A
Weather by CustomWeather, © 2016

See weather overviewHow to use our weather pages